sat.trackr.live / text

‹ back to catalog

STARLINK-34161

NORAD 64017 · 2025-101Z

PAYLOAD ACTIVE UNKNOWN

§ Identity

Operator
Country
US
Launch date
2025-05-14
Launch site
AFETR
Launch vehicle
Mass (kg)
RCS (m²)

Purposes: comms

External: N2YO · Heavens-Above · Gunter

§ Orbital elements

Epoch: 2026-09-20T12:29:20.939136Z

Period
94.27 min
Inclination
43.0012°
Eccentricity
0.0000924
Mean motion
15.27586039 rev/d
Perigee alt
482.4 km
Apogee alt
483.7 km
Semi-major
6,861.2 km
B*
2.9939e-4
RAAN
337.5173°
Arg perigee
263.0026°
Mean anomaly
97.0720°
Rev number
7,685

§ Raw data

STARLINK-341611 64017U 25101Z   26263.52038124  .00007987  00000+0  29939-3 0  99962 64017  43.0012 337.5173 0000924 263.0026  97.0720 15.27586039 76850

JSON: /api/v1/satellites/64017 · /tle

For live sub-satellite position, see the globe view (requires WebGL).

§ Visibility from observer

Set your observer location to see the next 7 days of passes ≥ 10°. The values pass through the URL so the page stays shareable.

No JS? Fill the form by hand. The geolocation button needs JavaScript.